Lexington Weather

Lexington, Massachusetts, USA

27°F
1/25/2021 9:31pm 
  • Lexington Conditions: Clear
  • Temperature: 27.3°F / -2.6°CColder 0.9°F than last hour.
  • Dew Point: 15.3°F 
  • Relative Humidity: 60%Increased 2.0% since last hour.
  • Wind: Wind from NNW NNW 1 mph, 10-min avg: 2 mph, gust: 5 mph
  • Barometer: 30.05 in Steady
  • Visibility: 10 miles
  • Snow Today: 0.0 in
  •   

Regional Weather Roundup
for Boston / Norton, MA

        
000
ASUS41 KBOX 252305
RWRBOX

REGIONAL WEATHER ROUNDUP
NATIONAL WEATHER SERVICE BOSTON/NORTON MA
600 PM EST MON JAN 25 2021

NOTE:  "FAIR" INDICATES FEW OR NO CLOUDS BELOW 12,000 FEET WITH NO 
SIGNIFICANT WEATHER AND/OR OBSTRUCTIONS TO VISIBILITY.

MAZALL-260000-
EASTERN MASSACHUSETTS
  
CITY           SKY/WX    TMP DP  RH WIND       PRES   REMARKS
BOSTON         PTCLDY    31   6  35 NW10      30.05R WCI  22          
BEVERLY        CLEAR     28   6  39 NW7       30.03R WCI  21          
LAWRENCE       CLEAR     29   9  43 NW6       30.05R WCI  23          
BEDFORD        CLEAR     29   7  39 W7        30.03S WCI  22          
BLUE HILL        N/A     28   5  37 NW9       29.99R WCI  19          
NORWOOD        CLEAR     32   4  30 VRB5      30.04R WCI  27          
MARSHFIELD     CLEAR     34   5  29 NW7G13    30.03R WCI  28          
PLYMOUTH       CLEAR     31   4  31 NW6       30.02R WCI  25          
TAUNTON        CLEAR     27   5  39 NW3       30.03R                  
NEW BEDFORD    CLEAR     30   4  33 VRB5      30.02S WCI  25          
$$

MAZALL-260000-
CAPE COD AND THE ISLANDS
  
CITY           SKY/WX    TMP DP  RH WIND       PRES   REMARKS
FALMOUTH       NOT AVBL                                               
HYANNIS        CLEAR     34   9  35 NW5       30.01R WCI  30          
CHATHAM        CLEAR     29  15  56 CALM      30.03R                  
PROVINCETOWN   CLEAR     34  15  46 NW14      30.03R WCI  25          
NANTUCKET      CLEAR     27  15  61 NW3       30.03R                  
MARTHAS VNYRD  CLEAR     24   6  46 NW5       30.02R WCI  18          
$$
 
MAZALL-260000-
CENTRAL AND WESTERN MASSACHUSETTS
  
CITY           SKY/WX    TMP DP  RH WIND       PRES   REMARKS
WORCESTER      CLEAR     28   9  44 N8        30.00R WCI  20          
FITCHBURG      CLEAR     28  11  48 NW8       30.05R WCI  20          
ORANGE         CLEAR     25  12  58 NW6       30.06R WCI  18          
SPRINGFIELD    NOT AVBL                                               
WESTFIELD      PTCLDY    29  12  49 N7        30.06R WCI  22          
NORTH ADAMS    CLEAR     20  10  65 CALM      30.08R                  
PITTSFIELD     PTCLDY    22   9  57 W5        30.02R WCI  16          
$$
 
RIZALL-260000-
RHODE ISLAND
  
CITY           SKY/WX    TMP DP  RH WIND       PRES   REMARKS
PROVIDENCE     PTCLDY    32   6  33 W5        30.04S WCI  27          
NEWPORT        CLEAR     32   8  36 NW8       30.02S WCI  25          
BLOCK ISLAND   PTCLDY    32   7  35 NW6       30.05R WCI  26          
SMITHFIELD     CLEAR     28   9  44 NW6       30.02S WCI  22          
WESTERLY       CLEAR     29   5  36 CALM      30.05R                  
$$
 
CTZALL-260000-
CONNECTICUT
  
CITY           SKY/WX    TMP DP  RH WIND       PRES   REMARKS
BRADLEY INTL   MOCLDY    30  11  45 NW6       30.06R WCI  24          
HARTFORD       PTCLDY    33  10  38 NW6       30.07R WCI  28          
BRIDGEPORT     MOCLDY    33  11  39 NW6       30.08R WCI  28          
DANBURY        MOCLDY    30  11  45 CALM      30.08R                  
GROTON         PTCLDY    31   7  36 NW5       30.05R WCI  26          
NEW HAVEN      MOCLDY    35  12  38 NW3       30.07R                  
CHESTER        FAIR      30   7  37 NW5       30.05R WCI  25          
MERIDEN        PTCLDY    32  10  40 NW5       30.07R WCI  27          
WILLIMANTIC    CLEAR     28   8  43 CALM      30.05R                  
OXFORD         PTCLDY    28  13  53 NW5       30.05R WCI  23          
$$

MEZ002-015-021-024-NHZ003-005-008-011-012-014-VTZ005-008-260000-
NORTHERN NEW ENGLAND
  
CITY           SKY/WX    TMP DP  RH WIND       PRES   REMARKS
PORTLAND ME    CLEAR     28  11  48 NW13      30.01R WCI  17          
BANGOR ME      CLEAR     26  12  55 NW16      29.95R WCI  14          
CONCORD NH     CLEAR     26   9  48 NW10      30.05R WCI  16          
MANCHESTER NH  PTCLDY    30  11  45 NW10      30.03S WCI  21          
NASHUA NH      CLEAR     28  13  53 NW8       30.05R WCI  20          
PORTSMOUTH NH  PTCLDY    27   2  33 W8        30.02R WCI  19          
JAFFREY NH     CLEAR     25  10  53 VRB3      30.02R                  
KEENE NH       CLEAR     23  12  62 NW3       30.07R                  
BURLINGTON VT  PTCLDY    20  12  71 S3        30.10S                  
MT. WASHINGTON NOT AVBL                                               
$$

NYZ052-076-260000-
EASTERN NEW YORK
  
CITY           SKY/WX    TMP DP  RH WIND       PRES   REMARKS
ALBANY         MOCLDY    24  11  57 NE3       30.11R                  
NEW YORK CITY  MOCLDY    37  13  37 NE8       30.09R WCI  31          
$$
 
ANZALL-260000-
MARINE OBSERVATIONS
  
STATION/POSITION TIME  TEMP    WIND        PRES    VSBY  WAVE
                       AIR SEA DIR/SP/G                  HT/PER
                 (UTC) (F)     (DEG/KT/KT) (MB)    (MI)  (FT/S)
BOSTON BUOY      2240   34 42  320/ 19/ 23 1017.2R
BUZZARDS BAY     2200          320/ 13/ 16 1017.6R
NANTUCKET SOUND  2240      38  310/  4/  6   N/A
MASS BAY-STELLWA 2204   35     320/ 17/ 23 1015.1R  1 7/8  3/ 3
ISLE OF SHOALS   2200   32     290/ 18/ 20 1015.7R
S OF BLOCK IS    2226      47                N/A           2/ 5
$$

......................KEY.........................
  SKY/WX - SKY CONDITION/PRESENT WEATHER
  TMP    - TEMPERATURE IN FAHRENHEIT
  DWPT   - DEWPOINT IN FAHRENHEIT
  RH     - RELATIVE HUMIDITY IN PERCENT
  WIND   - DIRECTION AND SPEED IN MPH
  PRES   - MEAN SEA LEVEL PRESSURE IN INCHES OF HG
  WCI    - WIND CHILL INDEX
  VSB    - VISIBILITY IN MILES
  HX     - HEAT INDEX
  TC     - TEMPERATURE IN CELSIUS
  VRB    - VARIABLE WIND DIRECTION
  N/A    - NOT AVAILABLE
  
      

Other recent Regional Weather Roundups

Mon Jan 25, 9:05pm

Mon Jan 25, 8:04pm

Mon Jan 25, 7:04pm

Mon Jan 25, 5:04pm

Mon Jan 25, 4:04pm

Mon Jan 25, 3:04pm

Mon Jan 25, 2:05pm

Mon Jan 25, 1:04pm

Mon Jan 25, 12:05pm

Mon Jan 25, 11:04am

Mon Jan 25, 10:04am

Mon Jan 25, 9:04am

Mon Jan 25, 8:05am

Mon Jan 25, 6:04am

Mon Jan 25, 5:04am

Mon Jan 25, 4:04am

Mon Jan 25, 3:04am

Mon Jan 25, 2:04am

Mon Jan 25, 1:04am

Sun Jan 24, 11:04pm

Sun Jan 24, 10:04pm

Sun Jan 24, 9:04pm

Sun Jan 24, 6:04pm

Sun Jan 24, 5:04pm

Sun Jan 24, 4:05pm

Sun Jan 24, 3:05pm

Sun Jan 24, 2:05pm

Sun Jan 24, 1:04pm

Sun Jan 24, 12:04pm

Sun Jan 24, 11:04am

Sun Jan 24, 10:04am

Sun Jan 24, 9:04am

Sun Jan 24, 8:04am

Sun Jan 24, 7:04am

Sun Jan 24, 6:04am

Sun Jan 24, 5:04am

Sun Jan 24, 4:04am

Sun Jan 24, 3:04am

Sun Jan 24, 2:04am

Sun Jan 24, 1:04am

Sun Jan 24, 12:04am

Sat Jan 23, 11:04pm

Sat Jan 23, 10:04pm

Sat Jan 23, 9:04pm

Sat Jan 23, 8:04pm

Sat Jan 23, 7:04pm

Sat Jan 23, 6:04pm

Sat Jan 23, 5:04pm

Sat Jan 23, 4:05pm

Sat Jan 23, 3:05pm

Sat Jan 23, 2:05pm

Sat Jan 23, 12:04pm

Sat Jan 23, 11:04am

Sat Jan 23, 10:04am

Sat Jan 23, 9:04am

Sat Jan 23, 8:04am

Sat Jan 23, 7:04am

Sat Jan 23, 6:04am

Sat Jan 23, 5:04am

Sat Jan 23, 4:04am

Meta data:

ID: 41fc4e56-6f41-4669-983e-3bd108ad47a2
Link: https://api.weather.gov/products/41fc4e56-6f41-4669-983e-3bd108ad47a2